sat.trackr.live / text

‹ back to catalog

STARLINK-35495

NORAD 66243 · 2025-245K

PAYLOAD ACTIVE UNKNOWN

§ Identity

Operator
Country
US
Launch date
2025-10-29
Launch site
AFETR
Launch vehicle
Mass (kg)
RCS (m²)

Purposes: comms

External: N2YO · Heavens-Above · Gunter

§ Orbital elements

Epoch: 2026-05-25T03:04:24.471264Z

Period
94.10 min
Inclination
53.1594°
Eccentricity
0.0001113
Mean motion
15.30211931 rev/d
Perigee alt
474.4 km
Apogee alt
475.9 km
Semi-major
6,853.3 km
B*
9.2087e-4
RAAN
288.5559°
Arg perigee
85.0718°
Mean anomaly
275.0409°
Rev number
3,295

§ Raw data

STARLINK-354951 66243U 25245K   26145.12806101  .00027024  00000+0  92087-3 0  99992 66243  53.1594 288.5559 0001113  85.0718 275.0409 15.30211931 32959

JSON: /api/v1/satellites/66243 · /tle

For live sub-satellite position, see the globe view (requires WebGL).

§ Visibility from observer

Set your observer location to see the next 7 days of passes ≥ 10°. The values pass through the URL so the page stays shareable.

No JS? Fill the form by hand. The geolocation button needs JavaScript.